KA1WBH Weather Reports


Display with metric or nautical units.
time (UTC)temp
F
wind
direction
speed
MPH
gust
MPH
rain 1hr
in
rain 24hr
in
rain mn
in
humidity
%
barometer
mb
20170625221929 73 250 5.0 19.0 0.00 0.00 0.00 69 1013.0
20170625220926 73 272 0.0 19.0 0.00 0.00 0.00 69 1012.8
20170625215956 72 243 9.0 24.0 0.00 0.00 0.00 68 1012.6
20170625214926 72 262 10.0 22.0 0.00 0.00 0.00 71 1012.6
20170625213926 72 218 2.0 17.0 0.00 0.00 0.00 72 1012.4
20170625212926 72 216 3.0 18.0 0.00 0.00 0.00 72 1012.3
20170625211926 72 245 9.0 20.0 0.00 0.00 0.00 72 1012.4
20170625210926 72 237 4.0 22.0 0.00 0.00 0.00 71 1012.4
20170625205926 72 239 10.0 18.0 0.00 0.00 0.00 70 1012.4
20170625204926 72 207 9.0 23.0 0.00 0.00 0.00 70 1012.4
20170625203927 72 240 5.0 20.0 0.00 0.00 0.00 69 1012.5
20170625202926 73 223 1.0 21.0 0.00 0.00 0.00 69 1012.5
20170625201931 73 233 11.0 18.0 0.00 0.00 0.00 68 1012.5
20170625200926 74 212 2.0 18.0 0.00 0.00 0.00 68 1012.7
20170625195927 74 169 0.0 16.0 0.00 0.00 0.00 69 1012.7
20170625194926 74 196 1.0 18.0 0.00 0.00 0.00 69 1012.7
20170625192926 73 225 0.0 16.0 0.00 0.00 0.00 71 1013.0
20170625191926 73 194 3.0 15.0 0.00 0.00 0.00 73 1013.2
20170625190926 73 203 1.0 8.0 0.00 0.00 0.00 72 1013.4
20170625185929 74 208 0.0 15.0 0.00 0.00 0.00 70 1013.5
20170625184926 74 268 1.0 17.0 0.00 0.00 0.00 71 1013.6
20170625183926 74 258 0.0 20.0 0.00 0.00 0.00 71 1013.6
20170625182926 74 200 14.0 21.0 0.00 0.00 0.00 71 1013.7
20170625181927 74 270 11.0 22.0 0.00 0.01 0.00 73 1013.6
20170625180926 74 244 0.0 17.0 0.00 0.01 0.00 73 1013.6
20170625175955 74 231 13.0 22.0 0.00 0.01 0.00 73 1013.6
20170625174926 74 249 5.0 24.0 0.00 0.01 0.00 72 1013.6
20170625173926 74 255 7.0 13.0 0.00 0.01 0.00 74 1013.7
20170625172927 74 277 0.0 16.0 0.00 0.01 0.00 73 1013.7
20170625171927 74 202 1.0 14.0 0.00 0.01 0.00 74 1013.7
20170625170926 74 222 1.0 16.0 0.00 0.01 0.00 74 1013.8
20170625165926 74 213 1.0 13.0 0.00 0.01 0.00 74 1013.7
20170625164942 74 180 2.0 13.0 0.00 0.01 0.00 72 1013.8
20170625163928 74 206 0.0 13.0 0.00 0.01 0.00 72 1013.9
20170625162926 74 195 0.0 14.0 0.00 0.01 0.00 70 1014.0
20170625161926 75 212 1.0 10.0 0.00 0.01 0.00 69 1014.0
20170625160926 75 208 1.0 15.0 0.00 0.01 0.00 69 1014.0
20170625155926 75 190 1.0 10.0 0.00 0.01 0.00 69 1014.0
20170625154925 75 221 0.0 10.0 0.00 0.01 0.00 68 1014.1
20170625153925 75 210 4.0 10.0 0.00 0.01 0.00 69 1014.1
20170625152926 75 196 0.0 5.0 0.00 0.01 0.00 68 1014.1
20170625151926 77 200 1.0 5.0 0.00 0.01 0.00 65 1014.2
20170625150926 78 216 0.0 4.0 0.00 0.01 0.00 61 1014.2
20170625145956 78 214 0.0 5.0 0.00 0.01 0.00 54 1014.2
20170625144927 79 246 1.0 7.0 0.00 0.05 0.00 53 1014.3
20170625142926 78 304 1.0 6.0 0.00 0.14 0.00 52 1014.3
20170625141926 78 300 0.0 6.0 0.00 0.24 0.00 54 1014.2
20170625140926 78 302 0.0 4.0 0.00 0.25 0.00 53 1014.2
20170625135926 77 255 1.0 11.0 0.00 0.31 0.00 56 1014.2
20170625134926 77 301 3.0 6.0 0.00 0.34 0.00 58 1014.3
20170625133925 76 300 0.0 4.0 0.00 0.34 0.00 58 1014.2
20170625132926 76 324 2.0 4.0 0.00 0.34 0.00 59 1014.3
20170625131927 76 309 3.0 3.0 0.00 0.34 0.00 59 1014.3
20170625130927 75 312 0.0 6.0 0.00 0.34 0.00 60 1014.3
20170625125926 75 286 2.0 7.0 0.00 0.34 0.00 62 1014.4
20170625123927 74 287 1.0 8.0 0.00 0.34 0.00 66 1014.4
20170625122926 73 268 5.0 7.0 0.00 0.34 0.00 65 1014.4
20170625121926 73 296 0.0 7.0 0.00 0.34 0.00 67 1014.5
20170625120926 72 277 5.0 8.0 0.00 0.34 0.00 68 1014.4
20170625115955 72 292 0.0 7.0 0.00 0.34 0.00 69 1014.4
20170625114926 72 291 0.0 7.0 0.00 0.34 0.00 69 1014.3
20170625113926 71 298 3.0 7.0 0.00 0.34 0.00 72 1014.1
20170625112926 71 295 2.0 6.0 0.00 0.34 0.00 71 1014.1
20170625111925 71 302 1.0 5.0 0.00 0.34 0.00 71 1014.0
20170625110926 71 268 0.0 3.0 0.00 0.34 0.00 73 1014.0
20170625105926 70 293 0.0 5.0 0.00 0.34 0.00 74 1013.8
20170625104927 70 272 5.0 5.0 0.00 0.34 0.00 75 1013.6
20170625103928 69 304 0.0 1.0 0.00 0.34 0.00 77 1013.4
20170625102926 68 304 0.0 1.0 0.00 0.34 0.00 78 1013.3
20170625101926 68 304 0.0 1.0 0.00 0.34 0.00 79 1013.3
20170625100941 67 305 0.0 1.0 0.00 0.34 0.00 79 1013.2
20170625095956 67 306 0.0 2.0 0.00 0.34 0.00 79 1013.0
20170625094927 66 306 0.0 2.0 0.00 0.34 0.00 78 1012.9
20170625093926 66 282 0.0 4.0 0.00 0.34 0.00 79 1012.8
20170625092926 66 311 0.0 2.0 0.00 0.34 0.00 81 1012.7
20170625090926 65 299 0.0 10.0 0.00 0.34 0.00 83 1012.6
20170625085927 65 331 0.0 0.0 0.00 0.34 0.00 84 1012.4
20170625084926 65 331 0.0 0.0 0.00 0.34 0.00 84 1012.3
20170625083928 65 331 0.0 0.0 0.00 0.34 0.00 83 1012.1
20170625082925 65 1 0.0 0.0 0.00 0.34 0.00 83 1012.0
20170625081926 65 22 0.0 0.0 0.00 0.34 0.00 82 1011.9
20170625080932 65 22 0.0 0.0 0.00 0.34 0.00 82 1011.7
20170625075925 65 22 0.0 0.0 0.00 0.34 0.00 83 1011.6
20170625073925 66 22 0.0 1.0 0.00 0.34 0.00 83 1011.7
20170625072925 66 22 0.0 0.0 0.00 0.34 0.00 83 1011.7
20170625071925 66 22 0.0 0.0 0.00 0.34 0.00 84 1011.7
20170625065925 67 38 0.0 0.0 0.00 0.34 0.00 82 1011.5
20170625064926 67 38 0.0 1.0 0.00 0.34 0.00 82 1011.5
20170625063926 67 315 0.0 3.0 0.00 0.34 0.00 83 1011.7
20170625062926 67 317 1.0 9.0 0.00 0.34 0.00 84 1011.8
20170625061926 67 271 6.0 7.0 0.00 0.34 0.00 87 1011.8
20170625060926 68 270 0.0 7.0 0.00 0.34 0.00 90 1011.6
20170625055925 68 259 0.0 7.0 0.00 0.34 0.00 91 1011.7
20170625054925 67 251 5.0 10.0 0.00 0.34 0.00 91 1011.7
20170625053926 67 251 0.0 2.0 0.00 0.34 0.00 90 1011.5
20170625052925 66 251 0.0 1.0 0.00 0.34 0.00 89 1011.4
20170625051925 66 255 0.0 1.0 0.00 0.34 0.00 88 1011.3
20170625050926 66 255 0.0 0.0 0.00 0.34 0.00 86 1011.4
20170625045956 67 256 0.0 0.0 0.00 0.34 0.00 84 1011.2
20170625043925 68 256 0.0 0.0 0.00 0.34 0.00 82 1011.2
20170625042926 68 256 0.0 2.0 0.00 0.34 0.00 81 1011.2
20170625041926 69 256 0.0 2.0 0.00 0.34 0.00 79 1011.2
20170625035955 69 256 0.0 2.0 0.00 0.34 0.00 77 1011.2
20170625034925 70 256 0.0 4.0 0.00 0.34 0.34 76 1011.2
20170625033925 70 255 0.0 7.0 0.00 0.34 0.34 75 1011.1
20170625031926 70 251 1.0 4.0 0.00 0.34 0.34 74 1010.8
20170625030927 71 252 0.0 5.0 0.00 0.34 0.34 73 1010.8
20170625025956 71 257 3.0 4.0 0.00 0.34 0.34 73 1010.7
20170625024928 72 284 1.0 5.0 0.00 0.34 0.34 72 1010.6
20170625022925 72 252 0.0 11.0 0.00 0.34 0.34 70 1010.4
20170625021927 72 265 3.0 10.0 0.00 0.34 0.34 72 1010.1
20170625020926 72 264 0.0 9.0 0.00 0.34 0.34 72 1010.0
20170625014925 73 252 2.0 6.0 0.00 0.34 0.34 70 1009.9
20170625013925 73 244 2.0 10.0 0.00 0.34 0.34 69 1009.6
20170625012927 74 254 1.0 6.0 0.00 0.34 0.34 68 1009.2
20170625011925 75 264 0.0 9.0 0.00 0.34 0.34 66 1009.1
20170625010925 75 264 6.0 9.0 0.00 0.34 0.34 63 1008.8
20170625005955 76 268 6.0 10.0 0.00 0.34 0.34 62 1008.6
20170625003925 77 270 1.0 10.0 0.00 0.34 0.34 59 1008.3
20170625002925 77 268 0.0 10.0 0.00 0.34 0.34 58 1008.1
20170625001925 78 295 1.0 13.0 0.00 0.34 0.34 58 1007.9
20170625000926 79 253 0.0 13.0 0.00 0.34 0.34 57 1007.6
20170624234925 80 265 10.0 13.0 0.00 0.34 0.34 57 1007.4
20170624233926 80 258 2.0 12.0 0.00 0.34 0.34 56 1007.2
20170624232926 81 260 9.0 17.0 0.00 0.34 0.34 55 1007.1
20170624230929 82 269 10.0 15.0 0.00 0.34 0.34 52 1006.7
20170624225955 82 266 3.0 17.0 0.00 0.34 0.34 52 1006.4
20170624224927 82 264 4.0 14.0 0.00 0.34 0.34 52 1006.4
20170624223926 83 274 0.0 14.0 0.00 0.34 0.34 53 1006.2
20170624222926 83 268 3.0 12.0 0.00 0.34 0.34 51 1006.0